Location: Unspecified
(0.0000°N, 0.0000°E)
Time: 01:11:17
(UTC+00:00)

Vanguard 2 - Visible Passes

Search period start: 20 July 2019 00:00
Search period end: 30 July 2019 00:00
Orbit: 553 x 2938 km, 32.9° (Epoch: 19 July)

Date Brightness Start Highest point End Pass type
(mag) Time Alt. Az. Time Alt. Az. Time Alt. Az.
20 Jul 9.8 05:41:05 10° N 05:43:43 16° NNE 05:46:12 10° ENE visible
20 Jul 10.4 18:40:33 10° SW 18:58:02 87° SE 19:14:40 10° NE visible
20 Jul 11.0 20:55:00 10° W 21:11:08 41° NW 21:24:01 10° NNE visible
20 Jul 11.5 23:18:39 10° NW 23:24:25 13° NNW 23:29:25 10° N visible
21 Jul 10.5 18:58:51 10° WSW 19:16:19 77° NW 19:32:44 10° NE visible
21 Jul 11.2 21:14:53 10° W 21:29:36 32° NNW 21:41:27 10° NNE visible
22 Jul 10.8 19:17:25 10° WSW 19:34:37 62° NW 19:50:36 10° NE visible
22 Jul 11.5 21:35:24 10° WNW 21:48:15 25° NNW 21:58:47 10° NNE visible
23 Jul 10.0 04:26:10 10° N 04:29:05 15° NNE 04:31:36 10° ENE visible
23 Jul 11.0 19:36:23 10° WSW 19:53:01 49° NW 20:08:19 10° NE visible
23 Jul 11.6 21:56:37 10° WNW 22:07:11 19° NNW 22:16:04 10° NNE visible
24 Jul 9.2 04:43:01 10° NNW 04:47:26 25° NNE 04:50:57 10° E visible
24 Jul 11.3 19:55:46 10° W 20:11:33 39° NNW 20:25:56 10° NNE visible
24 Jul 11.6 22:18:29 10° NW 22:26:25 15° NNW 22:33:16 10° N visible
25 Jul 10.7 02:54:26 10° N 02:55:28 10° NNE 02:56:26 10° NNE visible
25 Jul 8.1 05:00:30 10° NW 05:05:37 47° NNE 05:09:33 10° ESE visible
25 Jul 10.8 18:00:18 10° WSW 18:16:07 70° NW 18:33:47 10° NE visible
25 Jul 11.5 20:15:42 10° W 20:30:18 31° NNW 20:43:29 10° NNE visible
25 Jul 11.7 22:40:54 10° NW 22:45:54 12° NNW 22:50:24 10° N visible
26 Jul 10.2 03:11:36 13° N 03:14:11 16° NNE 03:17:33 10° ENE visible
26 Jul 7.0 05:18:25 10° NW 05:23:38 86° SW 05:27:39 10° SE visible
26 Jul 11.1 18:18:56 10° WSW 18:34:33 57° NW 18:51:40 10° NE visible
26 Jul 11.7 20:36:13 10° WNW 20:49:17 24° NNW 21:01:02 10° NNE visible
26 Jul 11.7 23:03:41 10° NNW 23:05:35 10° N 23:07:23 10° N visible
27 Jul 9.6 03:30:44 22° N 03:32:45 25° NNE 03:36:53 10° E visible
27 Jul 7.5 05:36:45 10° WNW 05:41:32 42° SW 05:45:21 10° SE visible
27 Jul 11.3 18:37:55 10° W 18:53:08 45° NNW 19:09:25 10° NE visible
27 Jul 11.7 20:57:18 10° WNW 21:08:34 20° NNW 21:18:38 10° NNE visible
28 Jul 8.7 03:49:33 35° N 03:51:06 41° NNE 03:55:36 10° E visible
28 Jul 11.6 18:57:21 10° W 19:11:55 36° NNW 19:27:08 10° NNE visible
28 Jul 11.7 21:18:49 10° NW 21:28:07 16° NNW 21:36:25 10° NNE visible
28 Jul 11.5 23:42:26 10° N 23:44:59 11° N 23:45:56 11° N visible
29 Jul11.302:06:33E02:06:33E01:47:17NWvisible
29 Jul 7.7 04:08:06 55° NNW 04:09:16 72° NNE 04:13:51 10° ESE visible
29 Jul 11.8 19:17:18 10° WNW 19:30:56 29° NNW 19:44:49 10° NNE visible
29 Jul 11.7 21:40:21 10° NW 21:47:53 14° N 21:54:38 10° NNE visible
